timestamp,waterbody_station,lease,latitude,longitude,deployment_start_date,deployment_end_date,sensor,depth,mooring,Temperature_degrees Celsius,Dissolved Oxygen_percent saturation
2022-01-01T00:00:00,Little Harbour-Melmerby Beach,,45.650204,-62.525184,2021-06-03,2022-06-19,HOBO-20291467,1.0,fixed,0.439,
2022-01-01T00:00:00,Merigomish Harbour-Olding Island,,45.644008,-62.468235,2021-06-24,2022-05-26,VR2AR-549339,5.0,fixed,0.0,
2022-01-01T00:15:00,Little Harbour-Melmerby Beach,,45.650204,-62.525184,2021-06-03,2022-06-19,HOBO-20291467,1.0,fixed,0.439,
2022-01-01T00:30:00,Little Harbour-Melmerby Beach,,45.650204,-62.525184,2021-06-03,2022-06-19,HOBO-20291467,1.0,fixed,0.439,
2022-01-01T00:45:00,Little Harbour-Melmerby Beach,,45.650204,-62.525184,2021-06-03,2022-06-19,HOBO-20291467,1.0,fixed,0.19,
2022-01-01T01:00:00,Merigomish Harbour-Olding Island,,45.644008,-62.468235,2021-06-24,2022-05-26,VR2AR-549339,5.0,fixed,0.0,
2022-01-01T01:00:00,Little Harbour-Melmerby Beach,,45.650204,-62.525184,2021-06-03,2022-06-19,HOBO-20291467,1.0,fixed,0.079,
2022-01-01T01:15:00,Little Harbour-Melmerby Beach,,45.650204,-62.525184,2021-06-03,2022-06-19,HOBO-20291467,1.0,fixed,0.079,
2022-01-01T01:30:00,Little Harbour-Melmerby Beach,,45.650204,-62.525184,2021-06-03,2022-06-19,HOBO-20291467,1.0,fixed,0.079,
2022-01-01T01:45:00,Little Harbour-Melmerby Beach,,45.650204,-62.525184,2021-06-03,2022-06-19,HOBO-20291467,1.0,fixed,0.079,
2022-01-01T02:00:00,Little Harbour-Melmerby Beach,,45.650204,-62.525184,2021-06-03,2022-06-19,HOBO-20291467,1.0,fixed,0.079,
2022-01-01T02:00:00,Merigomish Harbour-Olding Island,,45.644008,-62.468235,2021-06-24,2022-05-26,VR2AR-549339,5.0,fixed,-0.1,
2022-01-01T02:15:00,Little Harbour-Melmerby Beach,,45.650204,-62.525184,2021-06-03,2022-06-19,HOBO-20291467,1.0,fixed,0.079,
2022-01-01T02:30:00,Little Harbour-Melmerby Beach,,45.650204,-62.525184,2021-06-03,2022-06-19,HOBO-20291467,1.0,fixed,0.107,
2022-01-01T02:45:00,Little Harbour-Melmerby Beach,,45.650204,-62.525184,2021-06-03,2022-06-19,HOBO-20291467,1.0,fixed,0.051,
2022-01-01T03:00:00,Little Harbour-Melmerby Beach,,45.650204,-62.525184,2021-06-03,2022-06-19,HOBO-20291467,1.0,fixed,0.051,
2022-01-01T03:00:00,Merigomish Harbour-Olding Island,,45.644008,-62.468235,2021-06-24,2022-05-26,VR2AR-549339,5.0,fixed,-0.2,
2022-01-01T03:15:00,Little Harbour-Melmerby Beach,,45.650204,-62.525184,2021-06-03,2022-06-19,HOBO-20291467,1.0,fixed,0.135,
2022-01-01T03:30:00,Little Harbour-Melmerby Beach,,45.650204,-62.525184,2021-06-03,2022-06-19,HOBO-20291467,1.0,fixed,0.079,
2022-01-01T03:45:00,Little Harbour-Melmerby Beach,,45.650204,-62.525184,2021-06-03,2022-06-19,HOBO-20291467,1.0,fixed,0.079,
2022-01-01T04:00:00,Merigomish Harbour-Olding Island,,45.644008,-62.468235,2021-06-24,2022-05-26,VR2AR-549339,5.0,fixed,-0.2,
2022-01-01T04:00:00,Little Harbour-Melmerby Beach,,45.650204,-62.525184,2021-06-03,2022-06-19,HOBO-20291467,1.0,fixed,0.051,
2022-01-01T04:15:00,Little Harbour-Melmerby Beach,,45.650204,-62.525184,2021-06-03,2022-06-19,HOBO-20291467,1.0,fixed,0.135,
2022-01-01T04:30:00,Little Harbour-Melmerby Beach,,45.650204,-62.525184,2021-06-03,2022-06-19,HOBO-20291467,1.0,fixed,0.301,
2022-01-01T04:45:00,Little Harbour-Melmerby Beach,,45.650204,-62.525184,2021-06-03,2022-06-19,HOBO-20291467,1.0,fixed,0.301,
2022-01-01T05:00:00,Little Harbour-Melmerby Beach,,45.650204,-62.525184,2021-06-03,2022-06-19,HOBO-20291467,1.0,fixed,0.273,
2022-01-01T05:00:00,Merigomish Harbour-Olding Island,,45.644008,-62.468235,2021-06-24,2022-05-26,VR2AR-549339,5.0,fixed,-0.2,
2022-01-01T05:15:00,Little Harbour-Melmerby Beach,,45.650204,-62.525184,2021-06-03,2022-06-19,HOBO-20291467,1.0,fixed,0.273,
2022-01-01T05:30:00,Little Harbour-Melmerby Beach,,45.650204,-62.525184,2021-06-03,2022-06-19,HOBO-20291467,1.0,fixed,0.19,
2022-01-01T05:45:00,Little Harbour-Melmerby Beach,,45.650204,-62.525184,2021-06-03,2022-06-19,HOBO-20291467,1.0,fixed,0.19,
2022-01-01T06:00:00,Little Harbour-Melmerby Beach,,45.650204,-62.525184,2021-06-03,2022-06-19,HOBO-20291467,1.0,fixed,0.135,
2022-01-01T06:00:00,Merigomish Harbour-Olding Island,,45.644008,-62.468235,2021-06-24,2022-05-26,VR2AR-549339,5.0,fixed,-0.2,
2022-01-01T06:15:00,Little Harbour-Melmerby Beach,,45.650204,-62.525184,2021-06-03,2022-06-19,HOBO-20291467,1.0,fixed,0.024,
2022-01-01T06:30:00,Little Harbour-Melmerby Beach,,45.650204,-62.525184,2021-06-03,2022-06-19,HOBO-20291467,1.0,fixed,-0.06,
2022-01-01T06:45:00,Little Harbour-Melmerby Beach,,45.650204,-62.525184,2021-06-03,2022-06-19,HOBO-20291467,1.0,fixed,-0.088,
2022-01-01T07:00:00,Little Harbour-Melmerby Beach,,45.650204,-62.525184,2021-06-03,2022-06-19,HOBO-20291467,1.0,fixed,0.107,
2022-01-01T07:00:00,Merigomish Harbour-Olding Island,,45.644008,-62.468235,2021-06-24,2022-05-26,VR2AR-549339,5.0,fixed,-0.3,
2022-01-01T07:15:00,Little Harbour-Melmerby Beach,,45.650204,-62.525184,2021-06-03,2022-06-19,HOBO-20291467,1.0,fixed,0.135,
2022-01-01T07:30:00,Little Harbour-Melmerby Beach,,45.650204,-62.525184,2021-06-03,2022-06-19,HOBO-20291467,1.0,fixed,0.079,
2022-01-01T07:45:00,Little Harbour-Melmerby Beach,,45.650204,-62.525184,2021-06-03,2022-06-19,HOBO-20291467,1.0,fixed,0.273,
2022-01-01T08:00:00,Little Harbour-Melmerby Beach,,45.650204,-62.525184,2021-06-03,2022-06-19,HOBO-20291467,1.0,fixed,0.024,
2022-01-01T08:00:00,Merigomish Harbour-Olding Island,,45.644008,-62.468235,2021-06-24,2022-05-26,VR2AR-549339,5.0,fixed,-0.2,
2022-01-01T08:15:00,Little Harbour-Melmerby Beach,,45.650204,-62.525184,2021-06-03,2022-06-19,HOBO-20291467,1.0,fixed,0.163,
2022-01-01T08:30:00,Little Harbour-Melmerby Beach,,45.650204,-62.525184,2021-06-03,2022-06-19,HOBO-20291467,1.0,fixed,0.329,
2022-01-01T08:45:00,Little Harbour-Melmerby Beach,,45.650204,-62.525184,2021-06-03,2022-06-19,HOBO-20291467,1.0,fixed,0.412,
2022-01-01T09:00:00,Merigomish Harbour-Olding Island,,45.644008,-62.468235,2021-06-24,2022-05-26,VR2AR-549339,5.0,fixed,0.0,
2022-01-01T09:00:00,Little Harbour-Melmerby Beach,,45.650204,-62.525184,2021-06-03,2022-06-19,HOBO-20291467,1.0,fixed,0.439,
2022-01-01T09:15:00,Little Harbour-Melmerby Beach,,45.650204,-62.525184,2021-06-03,2022-06-19,HOBO-20291467,1.0,fixed,0.412,
2022-01-01T09:30:00,Little Harbour-Melmerby Beach,,45.650204,-62.525184,2021-06-03,2022-06-19,HOBO-20291467,1.0,fixed,0.412,
2022-01-01T09:45:00,Little Harbour-Melmerby Beach,,45.650204,-62.525184,2021-06-03,2022-06-19,HOBO-20291467,1.0,fixed,0.384,
2022-01-01T10:00:00,Little Harbour-Melmerby Beach,,45.650204,-62.525184,2021-06-03,2022-06-19,HOBO-20291467,1.0,fixed,0.384,
2022-01-01T10:00:00,Merigomish Harbour-Olding Island,,45.644008,-62.468235,2021-06-24,2022-05-26,VR2AR-549339,5.0,fixed,0.0,
2022-01-01T10:15:00,Little Harbour-Melmerby Beach,,45.650204,-62.525184,2021-06-03,2022-06-19,HOBO-20291467,1.0,fixed,0.412,
2022-01-01T10:30:00,Little Harbour-Melmerby Beach,,45.650204,-62.525184,2021-06-03,2022-06-19,HOBO-20291467,1.0,fixed,0.384,
2022-01-01T10:45:00,Little Harbour-Melmerby Beach,,45.650204,-62.525184,2021-06-03,2022-06-19,HOBO-20291467,1.0,fixed,0.356,
2022-01-01T11:00:00,Little Harbour-Melmerby Beach,,45.650204,-62.525184,2021-06-03,2022-06-19,HOBO-20291467,1.0,fixed,0.356,
2022-01-01T11:00:00,Merigomish Harbour-Olding Island,,45.644008,-62.468235,2021-06-24,2022-05-26,VR2AR-549339,5.0,fixed,0.0,
2022-01-01T11:15:00,Little Harbour-Melmerby Beach,,45.650204,-62.525184,2021-06-03,2022-06-19,HOBO-20291467,1.0,fixed,0.384,
2022-01-01T11:30:00,Little Harbour-Melmerby Beach,,45.650204,-62.525184,2021-06-03,2022-06-19,HOBO-20291467,1.0,fixed,0.384,
2022-01-01T11:45:00,Little Harbour-Melmerby Beach,,45.650204,-62.525184,2021-06-03,2022-06-19,HOBO-20291467,1.0,fixed,0.384,
2022-01-01T12:00:00,Merigomish Harbour-Olding Island,,45.644008,-62.468235,2021-06-24,2022-05-26,VR2AR-549339,5.0,fixed,0.0,
2022-01-01T12:00:00,Little Harbour-Melmerby Beach,,45.650204,-62.525184,2021-06-03,2022-06-19,HOBO-20291467,1.0,fixed,0.412,
2022-01-01T12:15:00,Little Harbour-Melmerby Beach,,45.650204,-62.525184,2021-06-03,2022-06-19,HOBO-20291467,1.0,fixed,0.412,
2022-01-01T12:30:00,Little Harbour-Melmerby Beach,,45.650204,-62.525184,2021-06-03,2022-06-19,HOBO-20291467,1.0,fixed,0.412,
2022-01-01T12:45:00,Little Harbour-Melmerby Beach,,45.650204,-62.525184,2021-06-03,2022-06-19,HOBO-20291467,1.0,fixed,0.439,
2022-01-01T13:00:00,Little Harbour-Melmerby Beach,,45.650204,-62.525184,2021-06-03,2022-06-19,HOBO-20291467,1.0,fixed,0.467,
2022-01-01T13:00:00,Merigomish Harbour-Olding Island,,45.644008,-62.468235,2021-06-24,2022-05-26,VR2AR-549339,5.0,fixed,0.0,
2022-01-01T13:15:00,Little Harbour-Melmerby Beach,,45.650204,-62.525184,2021-06-03,2022-06-19,HOBO-20291467,1.0,fixed,0.467,
2022-01-01T13:30:00,Little Harbour-Melmerby Beach,,45.650204,-62.525184,2021-06-03,2022-06-19,HOBO-20291467,1.0,fixed,0.522,
2022-01-01T13:45:00,Little Harbour-Melmerby Beach,,45.650204,-62.525184,2021-06-03,2022-06-19,HOBO-20291467,1.0,fixed,0.522,
2022-01-01T14:00:00,Little Harbour-Melmerby Beach,,45.650204,-62.525184,2021-06-03,2022-06-19,HOBO-20291467,1.0,fixed,0.522,
2022-01-01T14:00:00,Merigomish Harbour-Olding Island,,45.644008,-62.468235,2021-06-24,2022-05-26,VR2AR-549339,5.0,fixed,0.0,
2022-01-01T14:15:00,Little Harbour-Melmerby Beach,,45.650204,-62.525184,2021-06-03,2022-06-19,HOBO-20291467,1.0,fixed,0.55,
2022-01-01T14:30:00,Little Harbour-Melmerby Beach,,45.650204,-62.525184,2021-06-03,2022-06-19,HOBO-20291467,1.0,fixed,0.605,
2022-01-01T14:45:00,Little Harbour-Melmerby Beach,,45.650204,-62.525184,2021-06-03,2022-06-19,HOBO-20291467,1.0,fixed,0.632,
2022-01-01T15:00:00,Merigomish Harbour-Olding Island,,45.644008,-62.468235,2021-06-24,2022-05-26,VR2AR-549339,5.0,fixed,0.0,
2022-01-01T15:00:00,Little Harbour-Melmerby Beach,,45.650204,-62.525184,2021-06-03,2022-06-19,HOBO-20291467,1.0,fixed,0.632,
2022-01-01T15:15:00,Little Harbour-Melmerby Beach,,45.650204,-62.525184,2021-06-03,2022-06-19,HOBO-20291467,1.0,fixed,0.632,
2022-01-01T15:30:00,Little Harbour-Melmerby Beach,,45.650204,-62.525184,2021-06-03,2022-06-19,HOBO-20291467,1.0,fixed,0.577,
2022-01-01T15:45:00,Little Harbour-Melmerby Beach,,45.650204,-62.525184,2021-06-03,2022-06-19,HOBO-20291467,1.0,fixed,0.55,
2022-01-01T16:00:00,Little Harbour-Melmerby Beach,,45.650204,-62.525184,2021-06-03,2022-06-19,HOBO-20291467,1.0,fixed,0.55,
2022-01-01T16:00:00,Merigomish Harbour-Olding Island,,45.644008,-62.468235,2021-06-24,2022-05-26,VR2AR-549339,5.0,fixed,0.0,
2022-01-01T16:15:00,Little Harbour-Melmerby Beach,,45.650204,-62.525184,2021-06-03,2022-06-19,HOBO-20291467,1.0,fixed,0.522,
2022-01-01T16:30:00,Little Harbour-Melmerby Beach,,45.650204,-62.525184,2021-06-03,2022-06-19,HOBO-20291467,1.0,fixed,0.522,
2022-01-01T16:45:00,Little Harbour-Melmerby Beach,,45.650204,-62.525184,2021-06-03,2022-06-19,HOBO-20291467,1.0,fixed,0.522,
2022-01-01T17:00:00,Merigomish Harbour-Olding Island,,45.644008,-62.468235,2021-06-24,2022-05-26,VR2AR-549339,5.0,fixed,0.0,
2022-01-01T17:00:00,Little Harbour-Melmerby Beach,,45.650204,-62.525184,2021-06-03,2022-06-19,HOBO-20291467,1.0,fixed,0.522,
2022-01-01T17:15:00,Little Harbour-Melmerby Beach,,45.650204,-62.525184,2021-06-03,2022-06-19,HOBO-20291467,1.0,fixed,0.55,
2022-01-01T17:30:00,Little Harbour-Melmerby Beach,,45.650204,-62.525184,2021-06-03,2022-06-19,HOBO-20291467,1.0,fixed,0.577,
2022-01-01T17:45:00,Little Harbour-Melmerby Beach,,45.650204,-62.525184,2021-06-03,2022-06-19,HOBO-20291467,1.0,fixed,0.605,
2022-01-01T18:00:00,Little Harbour-Melmerby Beach,,45.650204,-62.525184,2021-06-03,2022-06-19,HOBO-20291467,1.0,fixed,0.605,
2022-01-01T18:00:00,Merigomish Harbour-Olding Island,,45.644008,-62.468235,2021-06-24,2022-05-26,VR2AR-549339,5.0,fixed,0.0,
2022-01-01T18:15:00,Little Harbour-Melmerby Beach,,45.650204,-62.525184,2021-06-03,2022-06-19,HOBO-20291467,1.0,fixed,0.632,
2022-01-01T18:30:00,Little Harbour-Melmerby Beach,,45.650204,-62.525184,2021-06-03,2022-06-19,HOBO-20291467,1.0,fixed,0.632,
2022-01-01T18:45:00,Little Harbour-Melmerby Beach,,45.650204,-62.525184,2021-06-03,2022-06-19,HOBO-20291467,1.0,fixed,0.632,
2022-01-01T19:00:00,Little Harbour-Melmerby Beach,,45.650204,-62.525184,2021-06-03,2022-06-19,HOBO-20291467,1.0,fixed,0.632,
2022-01-01T19:00:00,Merigomish Harbour-Olding Island,,45.644008,-62.468235,2021-06-24,2022-05-26,VR2AR-549339,5.0,fixed,0.0,
2022-01-01T19:15:00,Little Harbour-Melmerby Beach,,45.650204,-62.525184,2021-06-03,2022-06-19,HOBO-20291467,1.0,fixed,0.66,
2022-01-01T19:30:00,Little Harbour-Melmerby Beach,,45.650204,-62.525184,2021-06-03,2022-06-19,HOBO-20291467,1.0,fixed,0.66,
2022-01-01T19:45:00,Little Harbour-Melmerby Beach,,45.650204,-62.525184,2021-06-03,2022-06-19,HOBO-20291467,1.0,fixed,0.687,
2022-01-01T20:00:00,Merigomish Harbour-Olding Island,,45.644008,-62.468235,2021-06-24,2022-05-26,VR2AR-549339,5.0,fixed,0.0,
2022-01-01T20:00:00,Little Harbour-Melmerby Beach,,45.650204,-62.525184,2021-06-03,2022-06-19,HOBO-20291467,1.0,fixed,0.715,
2022-01-01T20:15:00,Little Harbour-Melmerby Beach,,45.650204,-62.525184,2021-06-03,2022-06-19,HOBO-20291467,1.0,fixed,0.825,
2022-01-01T20:30:00,Little Harbour-Melmerby Beach,,45.650204,-62.525184,2021-06-03,2022-06-19,HOBO-20291467,1.0,fixed,0.907,
2022-01-01T20:45:00,Little Harbour-Melmerby Beach,,45.650204,-62.525184,2021-06-03,2022-06-19,HOBO-20291467,1.0,fixed,0.934,
2022-01-01T21:00:00,Little Harbour-Melmerby Beach,,45.650204,-62.525184,2021-06-03,2022-06-19,HOBO-20291467,1.0,fixed,0.934,
2022-01-01T21:00:00,Merigomish Harbour-Olding Island,,45.644008,-62.468235,2021-06-24,2022-05-26,VR2AR-549339,5.0,fixed,0.2,
2022-01-01T21:15:00,Little Harbour-Melmerby Beach,,45.650204,-62.525184,2021-06-03,2022-06-19,HOBO-20291467,1.0,fixed,0.962,
2022-01-01T21:30:00,Little Harbour-Melmerby Beach,,45.650204,-62.525184,2021-06-03,2022-06-19,HOBO-20291467,1.0,fixed,1.017,
2022-01-01T21:45:00,Little Harbour-Melmerby Beach,,45.650204,-62.525184,2021-06-03,2022-06-19,HOBO-20291467,1.0,fixed,1.099,
2022-01-01T22:00:00,Little Harbour-Melmerby Beach,,45.650204,-62.525184,2021-06-03,2022-06-19,HOBO-20291467,1.0,fixed,1.099,
2022-01-01T22:00:00,Merigomish Harbour-Olding Island,,45.644008,-62.468235,2021-06-24,2022-05-26,VR2AR-549339,5.0,fixed,0.3,
2022-01-01T22:15:00,Little Harbour-Melmerby Beach,,45.650204,-62.525184,2021-06-03,2022-06-19,HOBO-20291467,1.0,fixed,1.044,
2022-01-01T22:30:00,Little Harbour-Melmerby Beach,,45.650204,-62.525184,2021-06-03,2022-06-19,HOBO-20291467,1.0,fixed,1.044,
2022-01-01T22:45:00,Little Harbour-Melmerby Beach,,45.650204,-62.525184,2021-06-03,2022-06-19,HOBO-20291467,1.0,fixed,0.989,
2022-01-01T23:00:00,Merigomish Harbour-Olding Island,,45.644008,-62.468235,2021-06-24,2022-05-26,VR2AR-549339,5.0,fixed,0.3,
2022-01-01T23:00:00,Little Harbour-Melmerby Beach,,45.650204,-62.525184,2021-06-03,2022-06-19,HOBO-20291467,1.0,fixed,1.017,
2022-01-01T23:15:00,Little Harbour-Melmerby Beach,,45.650204,-62.525184,2021-06-03,2022-06-19,HOBO-20291467,1.0,fixed,1.017,
2022-01-01T23:30:00,Little Harbour-Melmerby Beach,,45.650204,-62.525184,2021-06-03,2022-06-19,HOBO-20291467,1.0,fixed,1.071,
2022-01-01T23:45:00,Little Harbour-Melmerby Beach,,45.650204,-62.525184,2021-06-03,2022-06-19,HOBO-20291467,1.0,fixed,1.044,
